This is the latest recevied weather packets stored in our database for station/object KE5VT. If no packets are shown the sender has not sent any weather packets the latest 10 day(s).
| Time | Temp. | Humidity | Pressure | Rain* | Wind** | Luminosity | Snow |
|---|---|---|---|---|---|---|---|
| 1777918544 | 23.89° C | 30% | 1012.2 hPa | 0 mm | - | 652 W/m² | - |
| 1777918243 | 23.33° C | 32% | 1012.3 hPa | 0 mm | - | 679 W/m² | - |
| 1777917941 | 24.44° C | 29% | 1012.4 hPa | 0 mm | - | 735 W/m² | - |
| 1777917640 | 23.89° C | 29% | 1012 hPa | 0 mm | - | 727 W/m² | - |
| 1777917337 | 23.89° C | 29% | 1012.1 hPa | 0 mm | - | 743 W/m² | - |
| 1777917033 | 25° C | 27% | 1012.3 hPa | 0 mm | - | 748 W/m² | - |
| 1777916731 | 22.78° C | 32% | 1012.2 hPa | 0 mm | - | 748 W/m² | - |
| 1777916428 | 23.89° C | 32% | 1012.4 hPa | 0 mm | - | 758 W/m² | - |
| 1777916125 | 23.33° C | 32% | 1012.4 hPa | 0 mm | - | 760 W/m² | - |
| 1777915822 | 23.89° C | 32% | 1012.3 hPa | 0 mm | - | 754 W/m² | - |
| 1777915518 | 23.33° C | 33% | 1012.4 hPa | 0 mm | - | 757 W/m² | - |
| 1777915215 | 22.78° C | 32% | 1012.4 hPa | 0 mm | - | 733 W/m² | - |
| 1777914912 | 23.89° C | 31% | 1012.5 hPa | 0 mm | - | 695 W/m² | - |
| 1777914609 | 22.78° C | 31% | 1012.5 hPa | 0 mm | - | 772 W/m² | - |
| 1777914304 | 25° C | 31% | 1012.5 hPa | 0 mm | - | 681 W/m² | - |
| 1777914002 | 24.44° C | 32% | 1012.7 hPa | 0 mm | - | 753 W/m² | - |
| 1777913698 | 23.89° C | 33% | 1012.9 hPa | 0 mm | - | 716 W/m² | - |
| 1777913395 | 22.78° C | 33% | 1012.9 hPa | 0 mm | - | 738 W/m² | - |
| 1777913092 | 22.78° C | 33% | 1012.9 hPa | 0 mm | - | 737 W/m² | - |
| 1777912788 | 22.22° C | 36% | 1012.9 hPa | 0 mm | - | 742 W/m² | - |
| 1777912484 | 23.33° C | 39% | 1013 hPa | 0 mm | - | 733 W/m² | - |
| 1777912181 | 23.33° C | 34% | 1013.2 hPa | 0 mm | - | 730 W/m² | - |
| 1777911877 | 22.22° C | 36% | 1013.3 hPa | 0 mm | - | 719 W/m² | - |
| 1777911573 | 22.78° C | 37% | 1013.3 hPa | 0 mm | - | 677 W/m² | - |
| 1777911269 | 22.22° C | 37% | 1013.6 hPa | 0 mm | - | 703 W/m² | - |
* Rain latest hour (hover to see other rain measurements)
** Current wind speed in m/s (hover to see current wind gust speed)